GW1546 Weather Reports


Display with metric or nautical units.
time (UTC)temp
F
wind
direction
speed
MPH
gust
MPH
rain 1hr
in
rain 24hr
in
rain mn
in
humidity
%
barometer
mb
20260903060022 72 114 0.0 0.0 0.00 0.00 0.00 99 990.5
20260903055421 72 122 1.0 1.0 0.00 0.00 0.00 99 990.5
20260903054841 72 131 0.0 1.0 0.00 0.00 0.00 99 990.8
20260903054241 72 105 1.0 1.0 0.00 0.00 0.00 99 990.5
20260903053630 72 132 0.0 1.0 0.00 0.00 0.00 99 990.5
20260903053045 72 170 0.0 1.0 0.00 0.00 0.00 99 990.5
20260903052414 72 178 1.0 1.0 0.00 0.00 0.00 99 990.5
20260903051837 72 167 1.0 2.0 0.00 0.00 0.00 99 990.5
20260903051246 72 174 1.0 2.0 0.00 0.00 0.00 99 990.5
20260903050044 72 144 1.0 1.0 0.00 0.00 0.00 99 990.5
20260903045423 72 133 0.0 1.0 0.00 0.00 0.00 99 990.5
20260903044820 72 141 0.0 1.0 0.00 0.00 0.00 99 990.5
20260903044241 72 166 1.0 1.0 0.00 0.00 0.00 99 990.5
20260903043608 72 150 0.0 1.0 0.00 0.00 0.00 99 990.5
20260903042436 72 157 1.0 2.0 0.00 0.00 0.00 99 990.8
20260903041809 73 175 1.0 2.0 0.00 0.00 0.00 99 990.5
20260903040636 73 165 1.0 2.0 0.00 0.00 0.00 99 990.8
20260903033647 74 136 1.0 1.0 0.00 0.00 0.00 99 990.5
20260903033021 74 111 0.0 1.0 0.00 0.00 0.00 99 990.5
20260903032429 74 112 0.0 1.0 0.00 0.00 0.00 99 990.5
20260903031847 74 137 1.0 1.0 0.00 0.00 0.00 99 990.5
20260903031227 74 119 1.0 1.0 0.00 0.00 0.00 99 990.8
20260903030031 74 147 0.0 1.0 0.00 0.00 0.00 99 990.8
20260903025421 74 167 0.0 2.0 0.00 0.00 0.00 99 990.8
20260903024819 74 131 0.0 1.0 0.00 0.00 0.00 99 990.8
20260903024240 74 149 0.0 1.0 0.00 0.00 0.00 99 990.8
20260903023031 74 154 0.0 2.0 0.00 0.00 0.00 99 990.8
20260903022413 74 181 1.0 3.0 0.00 0.00 0.00 99 990.8
20260903021832 74 166 1.0 2.0 0.00 0.00 0.00 99 990.8
20260903021225 74 167 1.0 1.0 0.00 0.00 0.00 99 990.8
20260903020614 74 174 2.0 2.0 0.00 0.00 0.00 99 990.8
20260903020031 74 200 1.0 2.0 0.00 0.00 0.00 99 990.8
20260903014825 74 213 1.0 2.0 0.00 0.00 0.00 99 990.8
20260903013042 75 160 2.0 2.0 0.00 0.00 0.00 99 990.5
20260903012417 75 145 0.0 2.0 0.00 0.00 0.00 99 990.1
20260903011247 75 214 0.0 1.0 0.00 0.00 0.00 99 990.1
20260903010631 75 181 1.0 2.0 0.00 0.00 0.00 99 990.1
20260903010042 76 190 0.0 1.0 0.00 0.00 0.00 99 990.5
20260903005428 76 203 0.0 1.0 0.00 0.00 0.00 99 990.1
20260903004849 76 184 1.0 2.0 0.00 0.00 0.00 98 990.1
20260903004227 76 182 0.0 1.0 0.00 0.00 0.00 98 990.1
20260903003640 76 203 0.0 1.0 0.00 0.00 0.00 98 990.1
20260903002418 76 200 1.0 1.0 0.00 0.00 0.00 97 989.8
20260903001845 77 248 0.0 0.0 0.00 0.00 0.00 97 989.8
20260903001207 77 201 0.0 1.0 0.00 0.00 0.00 97 989.8
20260903000622 77 123 1.0 1.0 0.00 0.00 0.00 97 989.8
20260903000030 77 206 0.0 1.0 0.00 0.00 0.00 97 989.8
20260902235426 77 193 1.0 1.0 0.00 0.00 0.00 96 989.8
20260902234827 78 192 1.0 1.0 0.00 0.00 0.00 95 989.8
20260902234231 78 222 0.0 1.0 0.00 0.00 0.00 95 989.5
20260902232448 79 175 1.0 2.0 0.00 0.00 0.00 94 989.5
20260902231807 79 193 0.0 1.0 0.00 0.00 0.00 93 989.5
20260902230636 80 211 0.0 1.0 0.00 0.00 0.00 91 989.5
20260902225422 81 173 1.0 2.0 0.00 0.00 0.00 90 989.5
20260902224832 81 304 1.0 1.0 0.00 0.00 0.00 88 989.5
20260902224238 82 236 1.0 2.0 0.00 0.00 0.00 88 989.8
20260902223649 82 267 0.0 1.0 0.00 0.00 0.00 88 989.5
20260902223034 82 232 1.0 2.0 0.00 0.00 0.00 87 989.5
20260902222413 83 243 2.0 2.0 0.00 0.00 0.00 84 989.8
20260902221814 84 222 1.0 2.0 0.00 0.00 0.00 81 989.5
20260902221219 87 240 2.0 2.0 0.00 0.00 0.00 78 989.5
20260902220629 87 243 1.0 2.0 0.00 0.00 0.00 74 990.1
20260902220047 88 239 0.0 3.0 0.00 0.00 0.00 73 989.8
20260902215407 91 245 1.0 1.0 0.00 0.00 0.00 67 989.8
20260902214848 92 244 1.0 1.0 0.00 0.00 0.00 66 989.8
20260902214236 91 245 1.0 2.0 0.00 0.00 0.00 67 989.5
20260902213633 91 203 1.0 1.0 0.00 0.00 0.00 66 989.5
20260902213030 90 222 1.0 2.0 0.00 0.00 0.00 69 989.8
20260902212428 92 198 1.0 2.0 0.00 0.00 0.00 65 989.8
20260902211842 92 263 1.0 3.0 0.00 0.00 0.00 64 989.5
20260902210614 93 250 1.0 2.0 0.00 0.00 0.00 64 989.5
20260902210017 93 252 1.0 2.0 0.00 0.00 0.00 62 989.8
20260902205407 92 250 1.0 2.0 0.00 0.00 0.00 66 989.8
20260902204845 92 220 0.0 2.0 0.00 0.00 0.00 64 989.8
20260902204243 93 292 2.0 2.0 0.00 0.00 0.00 64 989.8
20260902203641 92 305 1.0 1.0 0.00 0.00 0.00 64 989.8
20260902203013 93 267 1.0 2.0 0.00 0.00 0.00 63 989.8
20260902202412 94 285 1.0 1.0 0.00 0.00 0.00 60 989.8
20260902201809 96 284 2.0 2.0 0.00 0.00 0.00 57 990.1
20260902201247 97 224 0.0 2.0 0.00 0.00 0.00 51 989.8
20260902200642 95 284 0.0 1.0 0.00 0.00 0.00 54 990.1
20260902194813 97 201 1.0 3.0 0.00 0.00 0.00 51 989.8
20260902194231 95 38 0.0 1.0 0.00 0.00 0.00 55 990.1
20260902193638 95 118 0.0 0.0 0.00 0.00 0.00 50 990.1
20260902193024 94 196 1.0 2.0 0.00 0.00 0.00 56 990.1
20260902192449 95 73 1.0 2.0 0.00 0.00 0.00 53 990.5
20260902191835 96 248 0.0 2.0 0.00 0.00 0.00 49 990.5
20260902190627 96 98 1.0 2.0 0.00 0.00 0.00 58 990.5
20260902190016 95 6 1.0 2.0 0.00 0.00 0.00 52 990.5
20260902185448 95 161 2.0 2.0 0.00 0.00 0.00 53 990.5
20260902184841 94 122 2.0 2.0 0.00 0.00 0.00 53 990.5
20260902183609 93 85 2.0 2.0 0.00 0.00 0.00 54 990.8
20260902183035 94 174 0.0 3.0 0.00 0.00 0.00 54 990.5
20260902182443 94 235 1.0 4.0 0.00 0.00 0.00 53 990.8
20260902181247 94 77 1.0 2.0 0.00 0.00 0.00 56 991.1
20260902180645 94 176 2.0 4.0 0.00 0.00 0.00 52 991.1
20260902180012 96 160 2.0 3.0 0.00 0.00 0.00 56 991.1
20260902175423 96 196 1.0 2.0 0.00 0.00 0.00 56 990.8
20260902174813 95 218 0.0 1.0 0.00 0.00 0.00 56 991.1
20260902174234 94 41 2.0 2.0 0.00 0.00 0.00 58 991.1
20260902173634 94 75 0.0 1.0 0.00 0.00 0.00 56 991.1
20260902173028 93 114 0.0 2.0 0.00 0.00 0.00 61 991.5
20260902172444 93 44 0.0 1.0 0.00 0.00 0.00 59 991.5
20260902171817 92 316 2.0 3.0 0.00 0.00 0.00 62 991.5
20260902171206 90 16 0.0 1.0 0.00 0.00 0.00 67 991.5
20260902170647 88 12 1.0 1.0 0.00 0.00 0.00 69 991.8
20260902170024 89 335 1.0 2.0 0.00 0.00 0.00 74 991.8
20260902165424 91 298 2.0 3.0 0.00 0.00 0.00 62 992.2
20260902164207 87 225 1.0 1.0 0.00 0.00 0.00 79 992.2
20260902163612 87 233 0.0 1.0 0.00 0.00 0.00 78 992.2
20260902163010 87 50 0.0 1.0 0.00 0.00 0.00 76 992.2
20260902162424 89 154 1.0 1.0 0.00 0.00 0.00 76 992.5
20260902161822 90 230 0.0 1.0 0.00 0.00 0.00 72 992.8
20260902161215 91 185 3.0 3.0 0.00 0.00 0.00 71 992.5
20260902160043 95 58 1.0 1.0 0.00 0.00 0.00 59 992.2
20260902155438 95 53 0.0 1.0 0.00 0.00 0.00 62 992.5
20260902154817 93 50 0.0 1.0 0.00 0.00 0.00 68 992.5
20260902154230 92 45 0.0 0.0 0.00 0.00 0.00 73 992.2
20260902153033 89 46 0.0 1.0 0.00 0.00 0.00 78 992.2
20260902152412 88 54 0.0 1.0 0.00 0.00 0.00 80 992.5
20260902151838 87 37 0.0 1.0 0.00 0.00 0.00 79 992.5
20260902150029 87 78 0.0 1.0 0.00 0.00 0.00 78 992.8
20260902145445 86 54 0.0 0.0 0.00 0.00 0.00 79 992.8
20260902144233 83 57 0.0 1.0 0.00 0.00 0.00 83 992.5
20260902143627 82 298 0.0 1.0 0.00 0.00 0.00 83 992.5
20260902143043 82 5 0.0 1.0 0.00 0.00 0.00 84 992.5
20260902142438 80 28 0.0 1.0 0.00 0.00 0.00 88 992.5
20260902141822 79 43 1.0 2.0 0.00 0.00 0.00 89 992.5
20260902141225 78 20 0.0 1.0 0.00 0.00 0.00 91 992.5
20260902140643 77 22 0.0 1.0 0.00 0.00 0.00 92 992.5
20260902140014 76 41 1.0 2.0 0.00 0.00 0.00 93 992.5
20260902135430 76 35 0.0 2.0 0.00 0.00 0.00 94 992.5
20260902134845 75 320 1.0 3.0 0.00 0.00 0.00 94 992.5
20260902134207 75 333 0.0 2.0 0.00 0.00 0.00 95 992.5
20260902133612 74 31 1.0 1.0 0.00 0.00 0.00 96 992.5
20260902133016 74 27 2.0 3.0 0.00 0.00 0.00 96 992.2
20260902132406 74 49 0.0 3.0 0.00 0.00 0.00 97 992.5
20260902131229 73 60 1.0 2.0 0.00 0.00 0.00 97 992.5
20260902130010 72 60 1.0 3.0 0.00 0.00 0.00 98 992.5
20260902125429 72 68 1.0 2.0 0.00 0.00 0.00 99 992.5
20260902123634 71 60 0.0 3.0 0.00 0.00 0.00 99 992.8
20260902122449 71 210 0.0 2.0 0.00 0.00 0.00 99 992.5
20260902121822 71 54 1.0 2.0 0.00 0.00 0.00 99 992.8
20260902121239 70 83 2.0 3.0 0.00 0.00 0.00 99 992.8
20260902120627 70 52 2.0 3.0 0.00 0.00 0.00 99 992.8
20260902120044 70 191 1.0 1.0 0.00 0.00 0.00 99 992.8
20260902115429 69 164 1.0 2.0 0.00 0.00 0.00 99 992.5
20260902114825 69 189 1.0 2.0 0.00 0.00 0.00 99 992.5
20260902114231 69 169 1.0 3.0 0.00 0.00 0.00 99 992.8
20260902113642 69 209 2.0 2.0 0.00 0.00 0.00 99 992.5
20260902113050 69 190 1.0 2.0 0.00 0.00 0.00 99 992.5
20260902112431 69 177 1.0 2.0 0.00 0.00 0.00 99 992.5
20260902111830 69 207 2.0 2.0 0.00 0.00 0.00 99 992.5
20260902111235 69 188 1.0 3.0 0.00 0.00 0.00 99 992.8
20260902110637 69 179 2.0 2.0 0.00 0.00 0.00 99 992.5
20260902110025 69 195 1.0 3.0 0.00 0.00 0.00 99 992.5
20260902105423 70 118 1.0 2.0 0.00 0.00 0.00 99 992.2
20260902104809 70 192 2.0 2.0 0.00 0.00 0.00 99 992.2
20260902103049 69 267 0.0 2.0 0.00 0.00 0.00 99 992.2
20260902102410 69 184 2.0 2.0 0.00 0.00 0.00 99 992.2
20260902101226 69 217 1.0 2.0 0.00 0.00 0.00 99 992.2
20260902100647 69 151 1.0 2.0 0.00 0.00 0.00 99 992.5
20260902100047 69 196 2.0 3.0 0.00 0.00 0.00 99 992.2
20260902095431 69 185 2.0 2.0 0.00 0.00 0.00 99 992.2
20260902094845 69 194 1.0 3.0 0.00 0.00 0.00 99 992.2
20260902094218 69 175 1.0 2.0 0.00 0.00 0.00 99 992.2
20260902093642 69 200 2.0 2.0 0.00 0.00 0.00 99 992.2
20260902093025 69 164 2.0 2.0 0.00 0.00 0.00 99 992.2
20260902092418 69 201 1.0 2.0 0.00 0.00 0.00 99 991.8
20260902091820 69 184 2.0 2.0 0.00 0.00 0.00 99 991.8
20260902091216 69 171 2.0 2.0 0.00 0.00 0.00 99 991.8
20260902090613 69 200 2.0 2.0 0.00 0.00 0.00 99 991.8
20260902090043 70 186 2.0 2.0 0.00 0.00 0.00 99 991.8
20260902085434 69 185 2.0 3.0 0.00 0.00 0.00 99 991.8
20260902084839 70 190 2.0 2.0 0.00 0.00 0.00 99 991.8
20260902084212 70 182 1.0 1.0 0.00 0.00 0.00 99 991.8
20260902083624 70 62 0.0 0.0 0.00 0.00 0.00 99 991.8
20260902083037 70 210 0.0 2.0 0.00 0.00 0.00 99 991.8
20260902082429 70 186 1.0 1.0 0.00 0.00 0.00 99 991.5
20260902081822 69 192 1.0 2.0 0.00 0.00 0.00 99 991.5
20260902080610 70 177 1.0 3.0 0.00 0.00 0.00 99 991.8
20260902080014 70 186 2.0 2.0 0.00 0.00 0.00 99 991.8
20260902074229 70 191 2.0 2.0 0.00 0.00 0.00 99 991.8
20260902073616 70 197 1.0 2.0 0.00 0.00 0.00 99 991.8
20260902073027 70 173 1.0 2.0 0.00 0.00 0.00 99 992.2
20260902072443 70 176 2.0 2.0 0.00 0.00 0.00 99 991.8
20260902071828 70 193 2.0 2.0 0.00 0.00 0.00 99 991.8
20260902071230 70 190 1.0 2.0 0.00 0.00 0.00 99 991.8
20260902070644 70 184 1.0 2.0 0.00 0.00 0.00 99 991.8
20260902070017 71 205 2.0 2.0 0.00 0.00 0.00 99 991.8
20260902065448 71 143 0.0 0.0 0.00 0.00 0.00 99 991.5
20260902064838 70 183 1.0 2.0 0.00 0.00 0.00 99 991.8
20260902064248 70 181 1.0 2.0 0.00 0.00 0.00 99 991.8
20260902063632 70 186 1.0 2.0 0.00 0.00 0.00 99 991.8
20260902063027 70 200 2.0 2.0 0.00 0.00 0.00 99 991.8
20260902062406 71 213 1.0 1.0 0.00 0.00 0.00 99 991.8
20260902061837 71 187 1.0 2.0 0.00 0.00 0.00 99 991.8
20260902061209 71 193 1.0 2.0 0.00 0.00 0.00 99 991.8